Regional Weather Roundup
Issued by NWS

Home | Current Version | Previous Version | Graphics & Text | Print | Product List | Glossary On
Versions: 1 2 3 4 5 6 7 8 9 10 11 12 13 14 15 16 17 18 19 20 21 22 23 24 25 26 27 28 29 30 31 32 33 34 35 36 37 38 39 40 41 42 43 44 45 46 47 48 49 50
000
ASUS45 KBOU 040107
RWRCO

WEATHER ROUNDUP FOR COLORADO
NATIONAL WEATHER SERVICE DENVER/BOULDER CO
700 PM MDT SUN MAY 03 2015

NOTE: "FAIR" INDICATES FEW OR NO CLOUDS BELOW 12000 FEET WITH NO
SIGNIFICANT WEATHER AND/OR OBSTRUCTIONS TO VISIBILITY.

COZ001>005-013-030-031-040200-
...NORTHWEST COLORADO...

CITY           SKY/WX    TMP DP  RH WIND       PRES   REMARKS
CRAIG          PTSUNNY   60  38  43 N14G23    30.00S
HAYDEN         PTSUNNY   57  36  44 N14G23    30.00S
MEEKER         PTSUNNY   60  40  47 N6        29.99F
MOUNT WERNER   NOT AVBL
STEAMBOAT SPGS CLOUDY    58  36  42 N15G21    30.02S
WALDEN         CLOUDY    54  32  43 N14       30.10R
$$

COZ006>008-011-040200-
...WEST CENTRAL VALLEYS...

CITY           SKY/WX    TMP DP  RH WIND       PRES   REMARKS
GRAND JUNCTION CLOUDY    68  34  28 S15G22    29.90F
MONTROSE       CLOUDY    65  34  31 SW8       30.00R
EAGLE          LGT RAIN  54  43  66 E12       30.11R
RIFLE          CLOUDY    66  38  35 S16       29.96F
DELTA          CLOUDY    70  36  28 E16G23    29.95R
NUCLA          CLOUDY    68  34  28 E10G18    30.00S
$$

COZ017>023-064>068-040200-
...SOUTHWEST COLORADO...

CITY           SKY/WX    TMP DP  RH WIND       PRES   REMARKS
DURANGO        MOSUNNY   62  33  33 NW8       30.02S
CORTEZ         SUNNY     65  35  33 E5        29.99S
PAGOSA SPRINGS CLOUDY    47  43  85 SE9G20    30.14R THUNDER
TELLURIDE      RAIN      40  39  97 NE3       30.22S
WOLF CREEK PAS NOT AVBL
$$

COZ009-010-012-014-032>034-037-058>063-040200-
...CENTRAL COLORADO...

CITY           SKY/WX    TMP DP  RH WIND       PRES   REMARKS
ASPEN          CLOUDY    47  40  76 SE9       30.12F
BUENA VISTA    NOT AVBL
COPPER MTN     CLOUDY    36  32  87 W3        30.31S
BERTHOUD PASS  FAIR      32  23  69 S9        30.34F WCI  24
COTTONWOOD PAS CLOUDY    46  32  57 NW8       30.21F
GUNNISON       MOSUNNY   48  36  61 N10       30.15S
KREMMLING      CLOUDY    59  32  36 S9        30.08S
LEADVILLE      CLOUDY    43  31  62 N7        30.20F
MONARCH PASS   PTSUNNY   34  30  86 NE14      30.38F WCI  24
SALIDA         CLOUDY    55  40  56 SW5       30.18F
SUNLIGHT       CLOUDY    41  34  75 CALM      30.26F
WILKERSON PASS MOCLDY    39  30  70 E3        30.30F
$$

COZ069>075-040200-
...SAN LUIS VALLEY/SANGRE DE CRISTO MOUNTAINS...

CITY           SKY/WX    TMP DP  RH WIND       PRES   REMARKS
ALAMOSA        CLOUDY    51  38  60 SE12      30.10S
LA VETA PASS   CLOUDY    39  36  87 MISG      30.21F
SAGUACHE       MOCLDY    55  34  44 N8        30.10F
$$

COZ035-036-038>040-040200-
...NORTHERN COLORADO FRONT RANGE...

CITY           SKY/WX    TMP DP  RH WIND       PRES   REMARKS
DENVER INTL AP CLOUDY    55  46  71 NE12      30.04R
DMNS CITY PARK   N/A     58  43  56 E8G16     30.03R
AURORA         MOCLDY    55  43  63 E16       30.06R
FRONT RANGE AP MOCLDY    57  48  72 NE12      30.06R
ERIE MUNI ARPT CLOUDY    61  43  51 E8        30.01R
BOULDER MUN AP CLOUDY    59  43  55 NE3       30.03R
CENTENNIAL     CLOUDY    56  41  57 E12G23    30.07R
BROOMFIELD     MOCLDY    61  39  44 NE8       30.03
FORT COLLINS   CLOUDY    61  43  51 NE10      30.04R
LONGMONT       CLOUDY    64  44  49 N5        30.04R
$$

COZ041-046-047-076>085-087-088-040200-
...PIKES PEAK/PALMER DIVIDE AND SOUTHERN FOOTHILLS...

CITY           SKY/WX    TMP DP  RH WIND       PRES   REMARKS
COLO. SPRINGS  MOCLDY    63  37  38 NW16      30.03R
A. F. ACADEMY  MOCLDY    55  42  61 N13       30.06S
ELLICOTT       MOCLDY   N/A N/A N/A E13       30.00R
FALCON         MOCLDY    57  35  42 N9        30.08R
FORT CARSON    CLOUDY    63  40  41 N9        29.99R
LIMON          CLOUDY    61  42  49 W10       29.99S
MONUMENT HILL  CLOUDY    46  43  87 N13       30.12R
TRINIDAD       CLOUDY    61  39  44 W9        29.99R
$$

COZ042>045-048>051-090-091-040200-
...NORTHEAST COLORADO...

CITY           SKY/WX    TMP DP  RH WIND       PRES   REMARKS
GREELEY ARPT   CLOUDY    55  45  67 E13       30.02F
AKRON          CLOUDY    62  42  47 NW24G32   29.98R
BURLINGTON     CLOUDY    75  41  29 NE10      29.89S
WRAY           MOCLDY    74  39  27 N15G23    29.90R
STERLING       CLOUDY    64  48  55 N9        29.97S
HOLYOKE        NOT AVBL
FORT MORGAN    CLOUDY    55 -15   5 N14       30.01F
$$

COZ086-089-092>099-040200-
...SOUTHEAST COLORADO...

CITY           SKY/WX    TMP DP  RH WIND       PRES   REMARKS
PUEBLO         CLOUDY    68  40  35 NE14      29.91S
LA JUNTA       CLOUDY    65  49  56 NW12      29.90F
LAMAR          CLOUDY    73  41  31 W14       29.85R
SPRINGFIELD      N/A     70  39  32 S13       29.90R
$$



USA.gov is the U.S. government's official web portal to all federal, state and local government web resources and services.